Regional Weather Roundup
Issued by NWS

Home | Current Version | Previous Version | Graphics & Text | Print | Product List | Glossary On
Versions: 1 2 3 4 5 6 7 8 9 10 11 12 13 14 15 16 17 18 19 20 21 22 23 24 25 26 27 28 29 30 31 32 33 34 35 36 37 38 39 40 41 42 43 44 45 46 47 48 49 50
000
ASUS43 KDMX 032201
RWRIA

WEATHER ROUNDUP FOR IOWA
NATIONAL WEATHER SERVICE DES MOINES IA
400 PM CST SAT DEC 03 2016

NOTE: "FAIR" INDICATES FEW OR NO CLOUDS BELOW 12,000 FEET WITH NO
SIGNIFICANT WEATHER AND/OR OBSTRUCTIONS TO VISIBILITY.

* - THESE STATIONS ARE NOT NWS STATIONS...THUS NOT UNDER NWS
QUALITY CONTROL.  THEY ALSO DO NOT REPORT WEATHER SUCH
AS PRECIPITATION OR FOG.

IAZ001>003-012>014-020>022-031>034-043>046-032300-
   NORTHWEST IOWA

CITY           SKY/WX    TMP DP  RH WIND       PRES   REMARKS
CARROLL *      MOCLDY    36  36 100 S7        30.21F WCI  30
CHEROKEE *     LGT SNOW  33  33 100 S8        30.18F WCI  26
DENISON *      LGT SNOW  32  32 100 CALM      30.18S VSB 3/4
LE MARS *      CLOUDY    34  32  93 S12       30.16F FOG     WCI  25
ORANGE CITY *  LGT SNOW  34  34 100 S10       30.14F VSB 1   WCI  26
SHELDON *      MIX PCPN  34  34 100 S13       30.13F WCI  25
SIOUX CITY     LGT SNOW  34  32  92 SE13      30.17F VSB 1   WCI  25
SPENCER        MIX PCPN  35  34  96 S17       30.17F FOG     WCI  25
STORM LAKE *   LGT SNOW  32  32 100 S9        30.18F VSB 3/4 WCI  24
$$

IAZ055>058-069>071-079>083-090>094-032300-
   SOUTHWEST IOWA

CITY           SKY/WX    TMP DP  RH WIND       PRES   REMARKS
ATLANTIC *     LGT SNOW  34  32  93 CALM      30.21S VSB 1
AUDUBON *      LGT SNOW  34  30  86 CALM      30.21F VSB 1
CLARINDA *       N/A     39  34  81 NE3       30.20F
COUNCIL BLFS * SNOW      32  32 100 SE6       30.18F VSB 1/2 WCI  26
CRESTON *      CLOUDY    39  32  75 E7        30.20F WCI  34
HARLAN  *      SNOW      32  32 100 CALM      30.23F VSB 1/2
LAMONI         CLOUDY    42  32  67 E5        30.19F
RED OAK *      CLOUDY    34  34 100 NE7       30.20F FOG     WCI  28
SHENANDOAH *   CLOUDY    36  34  93 NE8       30.19F WCI  29
$$

IAZ047>049-059>061-072>074-084-032300-
   CENTRAL IOWA

CITY           SKY/WX    TMP DP  RH WIND       PRES   REMARKS
AMES           CLOUDY    39  33  79 S6        30.24R WCI  35
ANKENY *       CLOUDY    39  34  81 SE7       30.25S WCI  34
BOONE *        CLOUDY    39  32  75 CALM      30.22S
CHARITON *       N/A     41  32  70 SE7       30.22S
DES MOINES     LGT RAIN  41  31  67 S7        30.24S
GRINNELL*      CLOUDY    38  31  76 SE7       30.24F WCI  32
KNOXVILLE *    CLOUDY    41  30  65 MISG      30.22F
MARSHALLTOWN   CLOUDY    38  31  76 SE8       30.23F WCI  32
NEWTON *       CLOUDY    37  32  81 SE6       30.23F WCI  33
PELLA *        PTCLDY    39  32  73 SE5       30.25F
PERRY *        LGT RAIN  38  35  89 S10       30.24R WCI  30
$$

IAZ004>006-015-016-023>025-035-036-032300-
   NORTH CENTRAL IOWA

CITY           SKY/WX    TMP DP  RH WIND       PRES   REMARKS
ALGONA *       MIX PCPN  36  34  93 S14       30.21S WCI  27
CLARION *      CLOUDY    36  34  93 S9        30.23S WCI  29
ESTHERVILLE    CLOUDY    34  34 100 S13       30.17F WCI  25
FORT DODGE *   CLOUDY    34  30  86 S6        30.23S WCI  29
MASON CITY     CLOUDY    37  29  72 S6        30.24S WCI  32
WEBSTER CITY * MIX PCPN  37  34  87 S9        30.21S WCI  31
IOWA FALLS *   CLOUDY    39  32  76 S6        30.24S WCI  35
$$

IAZ007>011-017>019-026>030-037>042-050>054-066-032300-
   NORTHEAST IOWA

CITY           SKY/WX    TMP DP  RH WIND       PRES   REMARKS
CEDAR RAPIDS   CLOUDY    37  30  75 S7        30.26F WCI  32
CHARLES CITY * CLOUDY    37  28  70 S3        30.24S
CLINTON *      CLOUDY    37  27  67 S7        30.30F WCI  32
DECORAH *      CLOUDY    34  23  64 CALM      30.24S
DUBUQUE        CLOUDY    35  26  69 CALM      30.27F
MONTICELLO *   CLOUDY    39  28  65 SW5       30.27S
OELWEIN *      CLOUDY    37  28  70 S3        30.25F
WATERLOO       CLOUDY    38  27  64 S9        30.26R WCI  31
$$

IAZ064-065-067-068-078-032300-
   EAST CENTRAL IOWA

CITY           SKY/WX    TMP DP  RH WIND       PRES   REMARKS
DAVENPORT      CLOUDY    37  26  64 S6        30.30F WCI  32
IOWA CITY      CLOUDY    38  28  67 MISG      30.29F
MUSCATINE *    CLOUDY    39  28  65 E5        30.29F
QUAD CITIES    MOCLDY    38  25  59 CALM      30.30F
$$

IAZ062-063-075>077-085>089-095>099-032300-
   SOUTHEAST IOWA

CITY           SKY/WX    TMP DP  RH WIND       PRES   REMARKS
BURLINGTON     CLOUDY    38  30  73 E7        30.28F WCI  33
FAIRFIELD *    PTCLDY    39  30  70 SE9       30.26F WCI  33
FORT MADISON * CLOUDY    39  30  70 E5        30.28F
KEOKUK *       CLOUDY    41  32  70 E7        30.26F
OSKALOOSA *      N/A     39  31  71 SE7       30.25F WCI  34
CENTERVILLE *    N/A     41  32  70 CALM      30.23F
OTTUMWA        CLOUDY    41  30  65 SE7       30.24F
WASHINGTON *   CLOUDY    39  30  70 SE7       30.27F WCI  34
$$

ABBREVIATIONS USED IN REMARKS
   TC - TEMPERATURES IN CELSIUS
  WCI - WIND CHILL INDEX
   HX - HEAT INDEX
  VSB - VISIBILITY
$$





USA.gov is the U.S. government's official web portal to all federal, state and local government web resources and services.